Location: Madrid
(40.4000°N, 3.6830°W)
Time: 22:49:47
(UTC+01:00)

ISS - Pass Details

Date: 17 January 2018
Orbit: 402 x 407 km, 51.6° (Epoch: 23 January)

Event Time Altitude Azimuth Distance (km) Brightness Sun altitude
Exits shadow 06:52:21 26° 198° (SSW) 832 -2.4 -19.3°
Drops below altitude 10° 06:54:28 10° 162° (SSE) 1,457 -0.7 -18.9°
Sets 06:56:41 0° 151° (SSE) 2,313 0.6 -18.5°
